Location: Heiligenberg
(48.5381°N, 7.3897°E)
Time: 23:28:42
(UTC+00:00)

USA 215 - Pass Details

Date: 26 May 2022
Orbit: 1099 x 1108 km, 123.0° (Epoch: 10 June)

Event Time Altitude Azimuth Distance (km) Brightness Sun altitude
Rises 00:17:21 0° 59° (ENE) 3,925 6.8 -19.5°
Reaches altitude 10° 00:19:52 10° 55° (NE) 2,966 6.2 -19.4°
Maximum altitude 00:26:15 57° 339° (NNW) 1,287 3.9 -19.1°
Drops below altitude 10° 00:32:37 10° 264° (W) 2,966 5.3 -18.9°
Sets 00:35:08 0° 260° (W) 3,924 5.9 -18.7°
